[[{"header":{"parameterUnit":"m.s-1","parameterCategory":1,"la1":30.2991,"la2":30.254,"lo1":-89.0895,"lo2":-89.0444,"dy":0.0017,"dx":0.0017,"nx":28,"ny":28,"refTime":"2025-12-18T09:00:00:Z","depth":0,"parameterNumber":2,"parameterNumberName":"U-component_of_WINDS"},"data":[0,0,0,0,0,0,0,0,0,0,0,0,0,0,0,0,0,0,0,0,0,0,0,0,0,0,0,0,0,0,0,0,0,0,0,0,0,0,0,0,0,0,0,0,0,0,0,0,0,0,0,0,0,0,0,0,0,0,0.4143,0.4143,0,0.4164,0.4164,0.4165,0.417,0.417,0.417,0.417,0.4191,0.4192,0.4193,0,0,0,0,0,0,0,0,0,0,0,0,0,0.4108,0.4108,0.4143,0.4143,0.4143,0.4164,0.4164,0.4165,0.417,0.417,0.417,0.417,0.4191,0.4192,0.4193,0,0,0,0,0,0,0,0,0,0,0,0,0,0.4125,0.4109,0.4143,0.4149,0.4149,0.4164,0.4164,0.4165,0.417,0.417,0.417,0.417,0.4191,0.4192,0.4193,0.4203,0,0,0.4196,0.4197,0,0,0,0,0,0,0,0,0.4124,0.4127,0.4147,0.4148,0.4149,0.4164,0.416,0.4178,0.417,0.4162,0.417,0.4169,0.4183,0.4184,0.4189,0.4204,0.4205,0.4196,0.4197,0.4197,0.4198,0,0,0,0,0,0,0,0.4123,0.4126,0.4151,0.4148,0.4149,0.415,0.4153,0.4163,0.4173,0.4163,0.4163,0.4166,0.4183,0.4188,0.4189,0.4206,0.4196,0.4197,0.4198,0.4198,0.4232,0.4232,0,0,0,0,0,0,0.4121,0.4125,0.4151,0.4152,0.4136,0.4151,0.4154,0.416,0.4173,0.4175,0.4166,0.4166,0.4186,0.4188,0.419,0.4204,0.4197,0.4198,0.4199,0.4232,0.4232,0.4232,0,0,0,0,0,0,0.412,0.4123,0.415,0.4138,0.4142,0.4152,0.4158,0.416,0.4165,0.4175,0.4177,0.4169,0.4186,0.4189,0.42,0.4204,0.4199,0.42,0.4231,0.4232,0.4232,0.4231,0,0,0,0,0,0,0.4119,0.4123,0.4127,0.4138,0.4143,0.4159,0.4159,0.4161,0.4167,0.4167,0.4179,0.418,0.4186,0.4199,0.4201,0.4206,0.4201,0.4231,0.4232,0.4232,0.423,0.4231,0.4231,0,0,0,0,0,0.4118,0.4125,0.4127,0.413,0.4147,0.4159,0.4162,0.4168,0.4167,0.4171,0.4178,0.418,0.4204,0.42,0.4203,0.4208,0.4231,0.4231,0.4232,0.423,0.4231,0.4231,0,0,0,0,0,0,0.4113,0.4127,0.4129,0.414,0.4149,0.416,0.4166,0.4168,0.4177,0.4177,0.4185,0.4187,0.4199,0.4204,0.42,0.4219,0.4217,0.4219,0.4215,0.4215,0.4216,0.4214,0.4201,0,0,0,0,0,0.4113,0.4122,0.4133,0.4142,0.4147,0.4155,0.4161,0.4165,0.4174,0.4178,0.4186,0.4195,0.4204,0.421,0.4219,0.4231,0.4234,0.4236,0.4237,0.4237,0.4238,0.4246,0.4247,0.4234,0.4234,0.4234,0,0,0.4114,0.4123,0.4127,0.4142,0.4149,0.4158,0.4158,0.4168,0.4174,0.4179,0.4191,0.4197,0.4208,0.422,0.4225,0.4225,0.4242,0.4238,0.4238,0.4239,0.4246,0.4247,0.4248,0.4235,0.4235,0.4235,0,0,0.412,0.4127,0.4135,0.4143,0.4154,0.416,0.4162,0.4174,0.4178,0.419,0.4194,0.4202,0.4218,0.4226,0.4232,0.4242,0.4244,0.4245,0.4247,0.4254,0.4255,0.4256,0.426,0.4262,0.4246,0.4246,0.4246,0,0.4119,0.4133,0.4139,0.4149,0.4155,0.416,0.4169,0.4176,0.419,0.4194,0.4193,0.4214,0.4222,0.4236,0.4238,0.4243,0.4246,0.4243,0.4255,0.4256,0.4257,0.4261,0.4262,0.4246,0.4246,0.4246,0.4246,0,0.4132,0.4141,0.4147,0.416,0.4167,0.4176,0.4184,0.4191,0.4195,0.4201,0.4214,0.4223,0.4234,0.4238,0.4242,0.4253,0.4253,0.4253,0.4252,0.4258,0.4261,0.4263,0.4245,0.4245,0.4245,0.4245,0,0,0.4134,0.4152,0.4154,0.416,0.4173,0.4181,0.419,0.4202,0.4208,0.4217,0.4226,0.424,0.4241,0.4247,0.4252,0.4258,0.4266,0.4258,0.4259,0.426,0.428,0.428,0.4281,0.4268,0.4269,0.4269,0.4279,0,0.4142,0.4159,0.4166,0.418,0.4189,0.4195,0.4204,0.4213,0.4219,0.4228,0.4235,0.4245,0.4245,0.425,0.4256,0.4264,0.4271,0.4263,0.4277,0.4277,0.4274,0.4283,0.4282,0.4292,0.4281,0.4281,0.4281,0,0.4153,0.4162,0.4178,0.419,0.4194,0.4202,0.4214,0.4222,0.4233,0.4237,0.4245,0.425,0.4261,0.4259,0.4274,0.4269,0.4275,0.428,0.4281,0.4282,0.4279,0.4285,0.4295,0.4296,0.4284,0.4283,0.4283,0,0.4153,0.417,0.4182,0.4187,0.4202,0.4208,0.4214,0.4225,0.4232,0.4242,0.4247,0.4258,0.4264,0.4273,0.4281,0.4279,0.4296,0.4294,0.43,0.43,0.4303,0.4303,0.4314,0.4307,0.4307,0.4307,0.4307,0,0.4161,0.417,0.4183,0.419,0.42,0.4209,0.4219,0.4226,0.4236,0.4244,0.425,0.4258,0.4268,0.4278,0.4284,0.4296,0.4299,0.4303,0.4304,0.4302,0.4302,0.4306,0.4306,0.4307,0.4307,0.4307,0.4307,0,0.4163,0.4172,0.4185,0.4199,0.4202,0.421,0.4221,0.4229,0.4236,0.4247,0.425,0.4261,0.4273,0.4282,0.4297,0.4301,0.4314,0.4316,0.431,0.4311,0.4316,0.4316,0.4331,0.4334,0.4324,0.4325,0.4325,0,0.4168,0.4175,0.4189,0.4196,0.4202,0.4212,0.422,0.4228,0.4236,0.4249,0.4255,0.4267,0.4278,0.4296,0.4306,0.4318,0.432,0.4324,0.4321,0.4319,0.432,0.4319,0.432,0.4325,0.4325,0.4325,0.4325,0,0.4174,0.4179,0.4189,0.4201,0.4209,0.4219,0.4229,0.4234,0.4244,0.4252,0.4265,0.4273,0.4288,0.4301,0.4314,0.4321,0.4325,0.4326,0.4328,0.4325,0.4322,0.4324,0.4312,0.4325,0.4325,0.4325,0.4325,0.4325,0.4178,0.4185,0.4197,0.4208,0.4216,0.4226,0.4233,0.4242,0.4252,0.4266,0.427,0.4283,0.4295,0.4313,0.432,0.4331,0.4331,0.4333,0.4334,0.4335,0.4335,0.4321,0.4333,0.4333,0.4333,0.4333,0.4333,0,0.4185,0.4193,0.4204,0.4217,0.4227,0.423,0.4241,0.4249,0.426,0.427,0.428,0.4295,0.4307,0.4318,0.4331,0.4337,0.4339,0.434,0.434,0.4342,0.4334,0.4331,0.4338,0.4338,0.4338,0.4338,0.4338,0.4338,0.419,0.4202,0.4208,0.4225,0.4233,0.4245,0.4252,0.4261,0.4269,0.4285,0.4295,0.4303,0.4314,0.4327,0.4339,0.4342,0.4346,0.4347,0.435,0.4343,0.4342,0.4341,0.4339,0.4348,0.4348,0.4357,0.4357,0.4358]},{"header":{"parameterUnit":"m.s-1","parameterCategory":1,"la1":30.2991,"la2":30.254,"lo1":-89.0895,"lo2":-89.0444,"dy":0.0017,"dx":0.0017,"nx":28,"ny":28,"refTime":"2025-12-18T09:00:00:Z","depth":0,"parameterNumber":3,"parameterNumberName":"V-component_of_WINDS"},"data":[0,0,0,0,0,0,0,0,0,0,0,0,0,0,0,0,0,0,0,0,0,0,0,0,0,0,0,0,0,0,0,0,0,0,0,0,0,0,0,0,0,0,0,0,0,0,0,0,0,0,0,0,0,0,0,0,0,0,-3.3408,-3.3408,0,-3.3471,-3.3472,-3.3472,-3.3473,-3.3473,-3.3472,-3.3471,-3.3532,-3.3534,-3.3536,0,0,0,0,0,0,0,0,0,0,0,0,0,-3.3285,-3.3288,-3.3408,-3.3408,-3.3409,-3.3471,-3.3472,-3.3473,-3.3474,-3.3473,-3.3472,-3.3471,-3.3531,-3.3534,-3.3536,0,0,0,0,0,0,0,0,0,0,0,0,0,-3.3342,-3.3288,-3.3407,-3.3417,-3.3419,-3.3471,-3.3472,-3.3473,-3.3474,-3.3473,-3.3471,-3.347,-3.353,-3.3533,-3.3537,-3.3582,0,0,-3.3548,-3.3549,0,0,0,0,0,0,0,0,-3.3339,-3.3347,-3.3415,-3.3417,-3.3418,-3.3463,-3.3451,-3.3509,-3.3474,-3.3453,-3.3471,-3.347,-3.351,-3.3515,-3.3529,-3.3585,-3.3587,-3.3548,-3.355,-3.3551,-3.3552,0,0,0,0,0,0,0,-3.3335,-3.3344,-3.3432,-3.3416,-3.3418,-3.3418,-3.3425,-3.3462,-3.3487,-3.3455,-3.3455,-3.3463,-3.351,-3.3526,-3.353,-3.3588,-3.3548,-3.3551,-3.3553,-3.3554,-3.3687,-3.3689,0,0,0,0,0,0,-3.333,-3.3341,-3.343,-3.3434,-3.3375,-3.3421,-3.3429,-3.345,-3.3486,-3.3491,-3.3463,-3.3462,-3.352,-3.3526,-3.3532,-3.359,-3.3551,-3.3555,-3.3557,-3.3686,-3.3688,-3.3689,0,0,0,0,0,0,-3.3327,-3.3338,-3.3428,-3.3388,-3.3399,-3.3424,-3.3448,-3.3452,-3.3467,-3.3493,-3.3497,-3.3475,-3.3519,-3.3528,-3.3571,-3.3592,-3.3556,-3.3559,-3.3684,-3.3686,-3.3688,-3.3704,0,0,0,0,0,0,-3.3324,-3.3337,-3.3354,-3.3388,-3.3401,-3.3466,-3.345,-3.3454,-3.3474,-3.3473,-3.3505,-3.3509,-3.3519,-3.3565,-3.3574,-3.3596,-3.3562,-3.3682,-3.3685,-3.3688,-3.3702,-3.3707,-3.3711,0,0,0,0,0,-3.3319,-3.3355,-3.3355,-3.3366,-3.3424,-3.3467,-3.3474,-3.3487,-3.3475,-3.3494,-3.3511,-3.3508,-3.3588,-3.357,-3.358,-3.3603,-3.3681,-3.3684,-3.3687,-3.37,-3.3706,-3.3711,0,0,0,0,0,0,-3.332,-3.3359,-3.336,-3.3408,-3.3435,-3.3467,-3.349,-3.3492,-3.3521,-3.3518,-3.3531,-3.3538,-3.3582,-3.3596,-3.3575,-3.365,-3.3633,-3.3639,-3.3639,-3.3645,-3.3649,-3.3645,-3.3565,0,0,0,0,0,-3.3326,-3.3359,-3.339,-3.3429,-3.3443,-3.3464,-3.3483,-3.3491,-3.3518,-3.3529,-3.3549,-3.3574,-3.3606,-3.3626,-3.3656,-3.3704,-3.3712,-3.3725,-3.3729,-3.3733,-3.3738,-3.3767,-3.3774,-3.37,-3.37,-3.37,0,0,-3.3338,-3.3364,-3.3383,-3.343,-3.3452,-3.3485,-3.3473,-3.3508,-3.3533,-3.3533,-3.3577,-3.3592,-3.3622,-3.3669,-3.369,-3.3682,-3.376,-3.3737,-3.374,-3.3743,-3.3771,-3.3778,-3.3784,-3.3702,-3.3701,-3.3701,0,0,-3.3378,-3.34,-3.3437,-3.3459,-3.3493,-3.3507,-3.3516,-3.355,-3.3561,-3.3605,-3.3607,-3.3636,-3.3689,-3.3711,-3.3729,-3.3781,-3.378,-3.379,-3.3813,-3.3841,-3.3847,-3.3853,-3.3873,-3.388,-3.3794,-3.3794,-3.3794,0,-3.3389,-3.344,-3.3454,-3.3491,-3.3512,-3.3517,-3.3554,-3.3575,-3.3616,-3.363,-3.3621,-3.369,-3.371,-3.3763,-3.3777,-3.379,-3.3801,-3.3786,-3.3845,-3.3851,-3.3856,-3.3876,-3.3883,-3.3795,-3.3795,-3.3795,-3.3795,0,-3.3453,-3.3488,-3.3514,-3.3557,-3.3581,-3.3617,-3.3637,-3.3659,-3.3665,-3.3681,-3.3727,-3.3751,-3.3788,-3.3801,-3.3805,-3.3855,-3.385,-3.3843,-3.3826,-3.3864,-3.3883,-3.3891,-3.3797,-3.3797,-3.3796,-3.3796,0,0,-3.3493,-3.3546,-3.3555,-3.3577,-3.3615,-3.3643,-3.368,-3.3718,-3.3738,-3.3767,-3.3799,-3.3845,-3.384,-3.3861,-3.3868,-3.3893,-3.3936,-3.3884,-3.3884,-3.3894,-3.3995,-3.4002,-3.401,-3.3935,-3.3937,-3.3938,-3.3994,0,-3.3539,-3.3608,-3.3623,-3.3682,-3.3716,-3.3722,-3.3755,-3.3782,-3.3798,-3.3829,-3.3846,-3.388,-3.3869,-3.3882,-3.3907,-3.3925,-3.3957,-3.3921,-3.3966,-3.3968,-3.396,-3.402,-3.4026,-3.4077,-3.4001,-3.4002,-3.4003,0,-3.3601,-3.3635,-3.3698,-3.3736,-3.375,-3.378,-3.3818,-3.3847,-3.3878,-3.3888,-3.3913,-3.3919,-3.3958,-3.394,-3.3995,-3.3971,-3.399,-3.4002,-3.4004,-3.401,-3.3989,-3.4029,-3.4093,-3.4102,-3.4014,-3.4013,-3.4013,0,-3.3628,-3.3688,-3.3735,-3.3752,-3.3796,-3.3817,-3.3836,-3.3867,-3.389,-3.3922,-3.3938,-3.3973,-3.3993,-3.402,-3.4036,-3.402,-3.4091,-3.4072,-3.4101,-3.4101,-3.4116,-3.4115,-3.4186,-3.4125,-3.4125,-3.4125,-3.4125,0,-3.3678,-3.3716,-3.3748,-3.3776,-3.3821,-3.3838,-3.3881,-3.39,-3.3928,-3.396,-3.3966,-3.3996,-3.4014,-3.4047,-3.4059,-3.4104,-3.4112,-3.4122,-3.4125,-3.4122,-3.4122,-3.4136,-3.4133,-3.4127,-3.4127,-3.4126,-3.4126,0,-3.3715,-3.3737,-3.3789,-3.3828,-3.3839,-3.387,-3.3903,-3.3931,-3.3948,-3.399,-3.4,-3.4026,-3.4066,-3.4084,-3.4131,-3.4139,-3.4192,-3.4191,-3.4182,-3.4183,-3.4212,-3.421,-3.4296,-3.4309,-3.4238,-3.4238,-3.4239,0,-3.3746,-3.3777,-3.3821,-3.3844,-3.3865,-3.3902,-3.3926,-3.3945,-3.397,-3.4011,-3.4034,-3.4074,-3.4107,-3.417,-3.4192,-3.4229,-3.4231,-3.4259,-3.4236,-3.4234,-3.4234,-3.4233,-3.4237,-3.4263,-3.4264,-3.4264,-3.4265,0,-3.38,-3.3811,-3.3847,-3.3888,-3.3918,-3.395,-3.3982,-3.4,-3.4024,-3.4052,-3.4094,-3.412,-3.4171,-3.4211,-3.425,-3.4269,-3.4272,-3.4272,-3.4281,-3.4279,-3.4274,-3.428,-3.4195,-3.427,-3.4269,-3.4269,-3.4269,-3.4269,-3.3837,-3.3866,-3.3902,-3.3943,-3.397,-3.4,-3.403,-3.4052,-3.4088,-3.4133,-3.4141,-3.4186,-3.4219,-3.4272,-3.4293,-3.4328,-3.4321,-3.4334,-3.4337,-3.434,-3.4343,-3.4267,-3.4335,-3.4335,-3.4334,-3.4334,-3.4334,0,-3.3893,-3.3918,-3.3956,-3.4002,-3.4035,-3.4036,-3.4072,-3.4099,-3.4139,-3.4171,-3.4205,-3.4254,-3.4294,-3.4321,-3.4361,-3.4384,-3.4387,-3.4394,-3.4394,-3.4399,-3.4346,-3.4335,-3.4392,-3.4392,-3.4392,-3.4392,-3.4392,-3.4392,-3.3927,-3.3977,-3.3992,-3.4056,-3.408,-3.4126,-3.4147,-3.4176,-3.4201,-3.4257,-3.4291,-3.4309,-3.434,-3.4383,-3.442,-3.4427,-3.4442,-3.4451,-3.4457,-3.4408,-3.4402,-3.4396,-3.4386,-3.4453,-3.4453,-3.4508,-3.4508,-3.4509]}]]